This is the latest recevied weather packets stored in our database for station/object CQ0XPG-11. If no packets are shown the sender has not sent any weather packets the latest 10 day(s).
| Time | Temp. | Humidity | Pressure | Rain* | Wind** | Luminosity | Snow |
|---|---|---|---|---|---|---|---|
| 1778149970 | 17.78° C | 65% | 1001.2 hPa | 0 mm | - | - | - |
| 1778149678 | 17.22° C | 73% | 1001.2 hPa | 0 mm | - | - | - |
| 1778149369 | 16.67° C | 71% | 1001.2 hPa | 0 mm | - | - | - |
| 1778149064 | 16.67° C | 75% | 1001.2 hPa | 0 mm | - | - | - |
| 1778148778 | 16.67° C | 75% | 1001.2 hPa | 0 mm | - | - | - |
| 1778148449 | 16.67° C | 79% | 1001.4 hPa | 0 mm | - | - | - |
| 1778148164 | 16.67° C | 74% | 1001.3 hPa | 0 mm | - | - | - |
| 1778147561 | 16.67° C | 80% | 1001.4 hPa | 0 mm | - | - | - |
| 1778147237 | 15.56° C | 96% | 1001.2 hPa | 0 mm | - | - | - |
| 1778146952 | 15.56° C | 94% | 1001.2 hPa | 0 mm | - | - | - |
| 1778146630 | 15.56° C | 100% | 1001.3 hPa | 0 mm | - | - | - |
| 1778146330 | 15° C | 100% | 1001.3 hPa | 0 mm | - | - | - |
| 1778146024 | 15° C | 100% | 1001.3 hPa | 0 mm | - | - | - |
| 1778145730 | 15.56° C | 100% | 1001.2 hPa | 0 mm | - | - | - |
| 1778145410 | 15° C | 100% | 1001.2 hPa | 0 mm | - | - | - |
| 1778145118 | 15° C | 100% | 1001.2 hPa | 0 mm | - | - | - |
| 1778144820 | 14.44° C | 100% | 1001.2 hPa | 0 mm | - | - | - |
| 1778144511 | 14.44° C | 100% | 1001.2 hPa | 0 mm | - | - | - |
| 1778143910 | 13.89° C | 100% | 1001.2 hPa | 0 mm | - | - | - |
| 1778143601 | 13.89° C | 100% | 1001 hPa | 0 mm | - | - | - |
| 1778143301 | 13.89° C | 100% | 1001.1 hPa | 0 mm | - | - | - |
| 1778142997 | 13.89° C | 100% | 1001.1 hPa | 0 mm | - | - | - |
| 1778142697 | 13.33° C | 100% | 1001.1 hPa | 0 mm | - | - | - |
| 1778142385 | 12.78° C | 100% | 1001.1 hPa | 0 mm | - | - | - |
| 1778142085 | 12.78° C | 100% | 1001 hPa | 0 mm | - | - | - |
* Rain since midnight (hover to see other rain measurements)
** Current wind speed in m/s (hover to see current wind gust speed)